Location: Karcze
(52.0945°N, 22.4786°E)
Time: 12:22:29
(UTC+00:00)

Cosmos 1697 Rocket - Pass Details

Date: 14 July 2020
Orbit: 834 x 842 km, 71.0° (Epoch: 07 August)

Event Time Altitude Azimuth Distance (km) Brightness Sun altitude
Rises 00:24:28 0° 328° (NNW) 3,401 6.3 -12.6°
Reaches altitude 10° 00:26:55 10° 327° (NNW) 2,461 5.5 -12.4°
Maximum altitude 00:32:33 75° 243° (WSW) 871 2.6 -12.0°
Drops below altitude 10° 00:38:08 10° 159° (SSE) 2,441 4.7 -11.6°
Sets 00:40:33 0° 158° (SSE) 3,370 5.5 -11.4°
Enters shadow 00:40:43 -1° 158° (SSE) 3,434 5.5 -11.4°
